SPACEMOBILE-SSR01 DEB, 62369

Orbit data source: Space-Track

SPACEMOBILE-SSR01 DEB, 62369 is space debris in LEO originally from a launch on Thu, 12 Sep 2024 UTC launched from the Air Force Eastern Test Range (AFETR). Debris objects in space refer to the collection of defunct objects orbiting the Earth. Examples of debris include non-operational satellites, rocket bodies, and fragments generated from explosions, collisions, or faulty payload assembly.

Loading next visibility...
Identifier
62369, 2024-163F
Orbit
LEO
Country
Flag of USUS
Related business
Manufacturer
AST & Science
Mission
Spacecraft
Bus & Motor
BW3 LVA, Unknown motor
Mass
150 kg wet, 150 kg dry
Launch date (UTC)
2024-09-12 (1 year ago)
Launch vehicle
Unknown
Launch site
Air Force Eastern Test Range (AFETR)
Object type
Payload
Rocket body
Debris
Shape & HBR
Cyl, 3.8 m
Radar Cross Section
1.963 m², Large (>1 m²)

Expand to show TLE details & history
Last TLE update: 10 hours ago

TLE from 10 hours ago
0 SPACEMOBILE-SSR01 DEB
1 62369U 24163F   25288.57241397  .00012810  00000-0  46137-3 0  9991
2 62369  52.9962 343.1125 0009555 109.7528 250.4501 15.28901257 49006
Epoch: 2025-10-15T13:44Z
TLE epoch observation values (Epoch: 2025-10-15T13:44:16.567Z)
Latitude
-0.00008°
Longitude
112.69886°
Altitude
482.175 km
Speed
7.624 km/s
True Right ascension
22h 52m 26s
True Declination
0° 00' 00"
Sunlit
Object was in full shadow at epoch
Visualization orbit readout
Latitude
Unknown
Longitude
Unknown
Altitude
Unknown
Speed
Unknown
Apparent Right ascension
Unknown
Apparent Declination
Unknown
Sunlit
N/A
Visualization observer readout
Local Sidereal Time
18:36:55
Azimuth
Unknown
Elevation
Unknown
Doppler factor
Unknown
Orbital elements
Apogee altitude
485.931 km
Perigee altitude
472.826 km
Semi-major axis
6,857.515 km
Eccentricity
0.00096
Inclination
52.9962°
RAAN
343.1125°
Arg. of periapsis
109.7528°
True anomaly
250.34696°
Mean anomaly
250.4501°
Eccentric anomaly
250.39853°
Mean motion
3.82202 °/min
Orbital period
94.19 mins
BSTAR
0.00046137
Loading maneuver chart data...
Computing Atmospheric mass density...
Loading historical data...
Loading historical data...
Loading historical data...
Loading historical data...
Loading historical data...
Loading historical data...
Loading historical data...

Documentation

Showing up to 5 results
|